QPF
0.00 0.00 0.00 0.00 0.00 0.00 0.00 0.01 0.01 0.01 0.01 0.02 0.02 0.03 0.04 0.05 0.04 0.05 0.04 0.05 0.07 0.07 0.09 0.08 0.08 0.08 0.08 0.10 0.10 0.10 0.10 0.11 0.10 0.11 0.10 0.08 0.05 0.04 0.06 0.05 0.04 0.03 0.03
0.00 0.00 0.00 0.00 0.00 0.00 0.00 0.00 0.01 0.01 0.01 0.02 0.03 0.03 0.04 0.04 0.03 0.03 0.03 0.04 0.07 0.07 0.07 0.09 0.10 0.09 0.11 0.11 0.10 0.11 0.10 0.09 0.08 0.10 0.10 0.10 0.08 0.05 0.03 0.03 0.03 0.03 0.04
0.00 0.00 0.01 0.01 0.00 0.00 0.00 0.00 0.00 0.00 0.01 0.01 0.01 0.02 0.04 0.04 0.03 0.04 0.05 0.04 0.04 0.03 0.04 0.05 0.08 0.10 0.10 0.09 0.11 0.12 0.12 0.12 0.10 0.10 0.11 0.09 0.09 0.07 0.05 0.03 0.02 0.03 0.05
0.00 0.01 0.01 0.00 0.00 0.00 0.00 0.00 0.00 0.01 0.01 0.01 0.01 0.02 0.03 0.03 0.04 0.04 0.04 0.04 0.03 0.02 0.02 0.05 0.08 0.10 0.08 0.07 0.08 0.10 0.11 0.12 0.10 0.10 0.10 0.09 0.08 0.09 0.08 0.05 0.02 0.02 0.02
0.00 0.00 0.00 0.00 0.00 0.00 0.00 0.00 0.00 0.00 0.01 0.01 0.02 0.03 0.02 0.03 0.03 0.03 0.04 0.04 0.02 0.01 0.01 0.03 0.07 0.08 0.06 0.06 0.06 0.08 0.08 0.08 0.08 0.09 0.08 0.07 0.07 0.07 0.08 0.06 0.04 0.02 0.02
0.00 0.00 0.00 0.00 0.00 0.00 0.00 0.00 0.00 0.00 0.01 0.01 0.01 0.03 0.03 0.03 0.03 0.03 0.03 0.03 0.01 0.02 0.01 0.03 0.05 0.06 0.05 0.06 0.06 0.07 0.07 0.07 0.07 0.07 0.07 0.06 0.05 0.05 0.06 0.06 0.04 0.03 0.02
0.00 0.00 0.00 0.00 0.00 0.00 0.00 0.00 0.00 0.01 0.01 0.02 0.02 0.02 0.03 0.04 0.04 0.03 0.03 0.02 0.01 0.02 0.03 0.04 0.05 0.04 0.03 0.04 0.05 0.06 0.06 0.07 0.07 0.06 0.05 0.04 0.04 0.04 0.04 0.04 0.03 0.03 0.02
0.00 0.00 0.00 0.00 0.00 0.00 0.00 0.01 0.01 0.02 0.01 0.02 0.02 0.02 0.02 0.03 0.03 0.03 0.02 0.02 0.02 0.02 0.03 0.03 0.03 0.02 0.03 0.03 0.05 0.05 0.07 0.07 0.06 0.05 0.05 0.04 0.04 0.04 0.03 0.03 0.04 0.03 0.02
0.00 0.01 0.00 0.00 0.00 0.01 0.01 0.01 0.03 0.03 0.04 0.04 0.04 0.04 0.03 0.03 0.03 0.03 0.02 0.01 0.02 0.02 0.02 0.02 0.02 0.02 0.03 0.04 0.05 0.06 0.06 0.05 0.04 0.04 0.05 0.05 0.04 0.03 0.02 0.03 0.03 0.04 0.03
0.00 0.00 0.00 0.01 0.01 0.01 0.01 0.01 0.03 0.04 0.06 0.07 0.06 0.06 0.06 0.04 0.03 0.02 0.01 0.02 0.03 0.02 0.02 0.02 0.02 0.02 0.02 0.03 0.04 0.04 0.05 0.04 0.04 0.04 0.06 0.06 0.04 0.03 0.02 0.03 0.03 0.03 0.03
0.00 0.00 0.00 0.00 0.01 0.02 0.01 0.02 0.04 0.07 0.08 0.07 0.06 0.04 0.03 0.02 0.02 0.01 0.01 0.02 0.03 0.02 0.01 0.01 0.01 0.02 0.03 0.03 0.04 0.04 0.04 0.04 0.04 0.04 0.05 0.05 0.05 0.04 0.04 0.04 0.04 0.04 0.05
0.00 0.00 0.00 0.01 0.02 0.02 0.02 0.02 0.03 0.04 0.05 0.05 0.04 0.03 0.02 0.02 0.02 0.01 0.01 0.01 0.01 0.01 0.01 0.01 0.01 0.02 0.02 0.03 0.03 0.04 0.04 0.03 0.04 0.04 0.05 0.05 0.05 0.05 0.05 0.05 0.05 0.04 0.05
0.01 0.01 0.00 0.01 0.02 0.01 0.01 0.02 0.02 0.02 0.01 0.02 0.02 0.02 0.02 0.02 0.01 0.01 0.01 0.01 0.01 0.01 0.00 0.01 0.01 0.01 0.02 0.04 0.04 0.05 0.05 0.04 0.06 0.06 0.07 0.08 0.07 0.05 0.05 0.04 0.04 0.04 0.04
0.04 0.04 0.01 0.01 0.01 0.01 0.01 0.01 0.00 0.01 0.01 0.01 0.01 0.02 0.01 0.01 0.02 0.01 0.01 0.00 0.01 0.01 0.00 0.00 0.01 0.01 0.02 0.03 0.04 0.06 0.07 0.07 0.09 0.11 0.13 0.13 0.09 0.07 0.07 0.05 0.05 0.05 0.05
0.02 0.01 0.01 0.01 0.01 0.01 0.01 0.01 0.00 0.00 0.01 0.01 0.01 0.01 0.01 0.01 0.01 0.01 0.01 0.01 0.01 0.01 0.01 0.01 0.02 0.02 0.03 0.03 0.04 0.05 0.07 0.07 0.08 0.10 0.13 0.14 0.12 0.09 0.07 0.05 0.05 0.06 0.06
0.00 0.00 0.00 0.01 0.00 0.00 0.00 0.00 0.00 0.00 0.00 0.00 0.00 0.00 0.00 0.00 0.01 0.01 0.01 0.01 0.01 0.02 0.03 0.04 0.05 0.05 0.06 0.06 0.06 0.06 0.06 0.06 0.06 0.07 0.06 0.07 0.07 0.06 0.05 0.04 0.04 0.05 0.05
0.00 0.00 0.00 0.00 0.00 0.00 0.00 0.00 0.00 0.00 0.00 0.00 0.00 0.00 0.00 0.00 0.00 0.01 0.01 0.02 0.02 0.02 0.03 0.03 0.06 0.07 0.08 0.09 0.09 0.08 0.07 0.06 0.06 0.06 0.05 0.04 0.04 0.03 0.03 0.04 0.04 0.03 0.03
0.01 0.01 0.00 0.01 0.00 0.00 0.00 0.00 0.00 0.00 0.00 0.00 0.00 0.01 0.01 0.01 0.01 0.02 0.02 0.02 0.02 0.03 0.04 0.03 0.04 0.06 0.07 0.07 0.07 0.07 0.06 0.05 0.04 0.04 0.04 0.05 0.05 0.05 0.04 0.05 0.05 0.04 0.04
0.01 0.01 0.01 0.01 0.01 0.01 0.01 0.01 0.01 0.01 0.01 0.01 0.01 0.02 0.02 0.03 0.05 0.07 0.07 0.05 0.04 0.03 0.03 0.03 0.03 0.05 0.07 0.07 0.06 0.05 0.03 0.03 0.02 0.02 0.03 0.03 0.03 0.03 0.04 0.04 0.05 0.04 0.04
0.02 0.02 0.01 0.01 0.02 0.02 0.02 0.02 0.02 0.01 0.01 0.01 0.02 0.02 0.02 0.03 0.06 0.09 0.10 0.07 0.05 0.03 0.02 0.02 0.02 0.04 0.05 0.05 0.04 0.04 0.04 0.03 0.03 0.03 0.03 0.03 0.03 0.04 0.04 0.03 0.04 0.03 0.03
0.03 0.02 0.02 0.02 0.02 0.02 0.02 0.02 0.02 0.02 0.02 0.01 0.01 0.01 0.02 0.02 0.03 0.04 0.04 0.04 0.02 0.02 0.01 0.02 0.02 0.02 0.02 0.02 0.02 0.03 0.04 0.04 0.03 0.04 0.03 0.03 0.04 0.04 0.05 0.05 0.04 0.04 0.05
0.02 0.02 0.02 0.02 0.03 0.03 0.03 0.03 0.03 0.03 0.02 0.02 0.02 0.02 0.02 0.03 0.03 0.04 0.04 0.03 0.02 0.02 0.02 0.02 0.02 0.02 0.02 0.02 0.02 0.02 0.03 0.03 0.03 0.03 0.03 0.04 0.04 0.04 0.05 0.04 0.03 0.04 0.05
0.02 0.03 0.02 0.02 0.03 0.03 0.02 0.03 0.03 0.02 0.02 0.02 0.02 0.02 0.02 0.02 0.03 0.04 0.04 0.03 0.03 0.03 0.03 0.02 0.02 0.03 0.02 0.03 0.04 0.03 0.03 0.03 0.03 0.02 0.03 0.04 0.03 0.03 0.03 0.03 0.03 0.03 0.03
0.02 0.02 0.03 0.03 0.03 0.03 0.03 0.04 0.03 0.03 0.03 0.02 0.01 0.01 0.01 0.02 0.02 0.03 0.03 0.03 0.03 0.03 0.04 0.03 0.03 0.03 0.03 0.04 0.04 0.05 0.05 0.04 0.02 0.02 0.03 0.02 0.02 0.02 0.02 0.02 0.02 0.02 0.02
0.02 0.02 0.02 0.03 0.03 0.03 0.04 0.04 0.04 0.03 0.03 0.02 0.01 0.01 0.02 0.02 0.02 0.02 0.02 0.03 0.03 0.04 0.04 0.04 0.05 0.05 0.04 0.05 0.06 0.05 0.05 0.04 0.03 0.03 0.02 0.02 0.02 0.02 0.02 0.02 0.02 0.02 0.02
0.01 0.02 0.02 0.02 0.02 0.03 0.03 0.03 0.03 0.03 0.04 0.03 0.02 0.02 0.02 0.02 0.02 0.02 0.02 0.04 0.04 0.04 0.05 0.06 0.07 0.08 0.08 0.08 0.08 0.08 0.05 0.04 0.03 0.03 0.02 0.02 0.02 0.02 0.02 0.02 0.02 0.02 0.02
MSLP
1012.06 1012.27 1012.48 1012.69 1012.92 1013.17 1013.44 1013.73 1014.03 1014.32 1014.58 1014.80 1014.98 1015.13 1015.26 1015.38 1015.52 1015.67 1015.85 1016.04 1016.25 1016.44 1016.62 1016.77 1016.89 1017.01 1017.13 1017.26 1017.40 1017.55 1017.70 1017.81 1017.86 1017.82 1017.67 1017.41 1017.05 1016.61 1016.12 1015.62 1015.16 1014.77 1014.48
1011.61 1011.90 1012.17 1012.43 1012.67 1012.91 1013.16 1013.43 1013.72 1014.01 1014.30 1014.56 1014.80 1014.99 1015.15 1015.28 1015.40 1015.52 1015.64 1015.78 1015.94 1016.09 1016.25 1016.39 1016.53 1016.65 1016.78 1016.92 1017.06 1017.21 1017.36 1017.48 1017.56 1017.56 1017.46 1017.26 1016.94 1016.52 1016.02 1015.48 1014.93 1014.43 1014.00
1011.00 1011.39 1011.75 1012.07 1012.35 1012.61 1012.86 1013.12 1013.40 1013.71 1014.03 1014.34 1014.62 1014.85 1015.04 1015.18 1015.28 1015.35 1015.42 1015.49 1015.58 1015.69 1015.81 1015.94 1016.07 1016.20 1016.33 1016.47 1016.60 1016.74 1016.88 1017.01 1017.11 1017.15 1017.11 1016.97 1016.72 1016.36 1015.90 1015.36 1014.77 1014.19 1013.66
1010.22 1010.73 1011.20 1011.61 1011.95 1012.24 1012.51 1012.78 1013.08 1013.41 1013.76 1014.11 1014.44 1014.72 1014.93 1015.07 1015.15 1015.17 1015.18 1015.18 1015.20 1015.25 1015.33 1015.43 1015.56 1015.69 1015.81 1015.94 1016.06 1016.19 1016.31 1016.43 1016.53 1016.60 1016.61 1016.55 1016.39 1016.11 1015.72 1015.23 1014.66 1014.06 1013.47
1009.32 1009.94 1010.53 1011.04 1011.47 1011.82 1012.12 1012.42 1012.73 1013.08 1013.46 1013.85 1014.22 1014.53 1014.77 1014.92 1014.97 1014.96 1014.91 1014.85 1014.81 1014.80 1014.84 1014.92 1015.03 1015.15 1015.27 1015.39 1015.49 1015.58 1015.67 1015.77 1015.86 1015.94 1016.00 1016.01 1015.93 1015.76 1015.48 1015.07 1014.57 1014.01 1013.42
1008.33 1009.07 1009.77 1010.39 1010.91 1011.32 1011.68 1012.00 1012.34 1012.71 1013.11 1013.52 1013.92 1014.27 1014.52 1014.68 1014.72 1014.69 1014.60 1014.49 1014.40 1014.36 1014.36 1014.42 1014.52 1014.63 1014.74 1014.83 1014.91 1014.96 1015.01 1015.06 1015.13 1015.21 1015.29 1015.35 1015.36 1015.30 1015.14 1014.86 1014.48 1014.00 1013.47
1007.31 1008.15 1008.96 1009.68 1010.28 1010.77 1011.16 1011.52 1011.87 1012.25 1012.66 1013.09 1013.50 1013.87 1014.15 1014.32 1014.37 1014.33 1014.23 1014.10 1013.99 1013.92 1013.92 1013.96 1014.05 1014.15 1014.25 1014.32 1014.35 1014.36 1014.35 1014.35 1014.37 1014.42 1014.50 1014.60 1014.68 1014.72 1014.69 1014.56 1014.32 1013.98 1013.56
1006.34 1007.24 1008.14 1008.94 1009.62 1010.16 1010.60 1010.98 1011.33 1011.71 1012.11 1012.54 1012.96 1013.34 1013.63 1013.82 1013.90 1013.88 1013.79 1013.68 1013.57 1013.51 1013.51 1013.56 1013.64 1013.74 1013.82 1013.86 1013.85 1013.80 1013.73 1013.66 1013.61 1013.61 1013.67 1013.78 1013.91 1014.04 1014.13 1014.14 1014.06 1013.88 1013.61
1005.48 1006.43 1007.37 1008.24 1008.97 1009.55 1010.02 1010.40 1010.75 1011.11 1011.49 1011.90 1012.31 1012.69 1013.01 1013.23 1013.34 1013.36 1013.32 1013.24 1013.17 1013.14 1013.15 1013.22 1013.31 1013.40 1013.46 1013.48 1013.42 1013.31 1013.17 1013.02 1012.90 1012.84 1012.85 1012.94 1013.10 1013.29 1013.48 1013.62 1013.69 1013.68 1013.56
1004.80 1005.76 1006.73 1007.62 1008.37 1008.98 1009.45 1009.83 1010.17 1010.50 1010.85 1011.23 1011.63 1012.00 1012.33 1012.58 1012.74 1012.82 1012.84 1012.83 1012.81 1012.83 1012.88 1012.96 1013.07 1013.16 1013.20 1013.18 1013.08 1012.92 1012.70 1012.47 1012.27 1012.14 1012.09 1012.15 1012.30 1012.52 1012.77 1013.02 1013.22 1013.35 1013.39
1004.36 1005.30 1006.25 1007.14 1007.90 1008.51 1008.97 1009.34 1009.65 1009.95 1010.26 1010.61 1010.98 1011.35 1011.69 1011.97 1012.18 1012.33 1012.42 1012.48 1012.53 1012.60 1012.69 1012.80 1012.92 1013.00 1013.03 1012.98 1012.84 1012.62 1012.34 1012.04 1011.77 1011.57 1011.46 1011.47 1011.59 1011.80 1012.09 1012.40 1012.68 1012.92 1013.08
1004.17 1005.07 1005.99 1006.85 1007.58 1008.17 1008.62 1008.97 1009.25 1009.52 1009.80 1010.12 1010.47 1010.82 1011.17 1011.48 1011.73 1011.94 1012.10 1012.22 1012.34 1012.46 1012.59 1012.73 1012.84 1012.92 1012.93 1012.85 1012.68 1012.42 1012.09 1011.75 1011.42 1011.16 1011.00 1010.95 1011.03 1011.22 1011.50 1011.83 1012.16 1012.46 1012.70
1004.27 1005.10 1005.95 1006.75 1007.44 1007.99 1008.42 1008.75 1009.02 1009.27 1009.53 1009.82 1010.14 1010.48 1010.83 1011.15 1011.44 1011.69 1011.90 1012.08 1012.24 1012.40 1012.56 1012.70 1012.81 1012.88 1012.86 1012.76 1012.57 1012.29 1011.94 1011.57 1011.22 1010.92 1010.72 1010.64 1010.68 1010.83 1011.08 1011.39 1011.71 1012.03 1012.30
1004.62 1005.37 1006.13 1006.85 1007.48 1008.00 1008.40 1008.71 1008.97 1009.21 1009.45 1009.73 1010.03 1010.36 1010.69 1011.01 1011.31 1011.58 1011.82 1012.03 1012.22 1012.39 1012.55 1012.69 1012.79 1012.83 1012.80 1012.68 1012.48 1012.19 1011.86 1011.49 1011.15 1010.85 1010.64 1010.53 1010.54 1010.66 1010.86 1011.12 1011.41 1011.70 1011.96
1005.20 1005.85 1006.51 1007.14 1007.69 1008.16 1008.53 1008.84 1009.09 1009.33 1009.57 1009.84 1010.12 1010.43 1010.74 1011.04 1011.33 1011.59 1011.83 1012.04 1012.22 1012.39 1012.54 1012.65 1012.72 1012.74 1012.69 1012.57 1012.37 1012.10 1011.80 1011.47 1011.16 1010.90 1010.71 1010.61 1010.61 1010.69 1010.85 1011.06 1011.29 1011.52 1011.73
1005.95 1006.49 1007.04 1007.57 1008.04 1008.46 1008.80 1009.10 1009.36 1009.61 1009.85 1010.11 1010.38 1010.65 1010.93 1011.20 1011.45 1011.68 1011.88 1012.06 1012.22 1012.36 1012.47 1012.56 1012.60 1012.59 1012.53 1012.40 1012.22 1011.99 1011.73 1011.47 1011.22 1011.02 1010.88 1010.82 1010.82 1010.90 1011.02 1011.18 1011.34 1011.50 1011.63
1006.82 1007.25 1007.69 1008.11 1008.50 1008.85 1009.17 1009.46 1009.73 1009.98 1010.23 1010.48 1010.73 1010.98 1011.21 1011.42 1011.62 1011.79 1011.95 1012.08 1012.19 1012.29 1012.36 1012.41 1012.42 1012.39 1012.32 1012.20 1012.04 1011.86 1011.65 1011.46 1011.30 1011.17 1011.10 1011.09 1011.13 1011.21 1011.32 1011.43 1011.53 1011.62 1011.67
1007.73 1008.06 1008.38 1008.70 1009.01 1009.31 1009.60 1009.88 1010.15 1010.41 1010.67 1010.91 1011.13 1011.33 1011.51 1011.67 1011.80 1011.91 1012.00 1012.07 1012.13 1012.18 1012.22 1012.23 1012.22 1012.18 1012.10 1012.00 1011.87 1011.72 1011.58 1011.46 1011.37 1011.33 1011.33 1011.37 1011.45 1011.55 1011.66 1011.75 1011.80 1011.83 1011.81
1008.62 1008.85 1009.08 1009.30 1009.54 1009.78 1010.04 1010.31 1010.58 1010.85 1011.10 1011.32 1011.52 1011.68 1011.80 1011.89 1011.95 1011.99 1012.02 1012.04 1012.06 1012.08 1012.09 1012.08 1012.06 1012.02 1011.95 1011.86 1011.75 1011.65 1011.55 1011.48 1011.46 1011.47 1011.53 1011.63 1011.75 1011.87 1011.98 1012.05 1012.08 1012.07 1012.00
1009.41 1009.57 1009.72 1009.87 1010.05 1010.25 1010.48 1010.73 1011.00 1011.26 1011.50 1011.71 1011.87 1011.98 1012.05 1012.08 1012.07 1012.05 1012.03 1012.02 1012.01 1012.01 1012.01 1012.01 1012.00 1011.96 1011.91 1011.84 1011.75 1011.67 1011.60 1011.56 1011.57 1011.61 1011.71 1011.83 1011.97 1012.11 1012.22 1012.30 1012.32 1012.28 1012.18
1010.07 1010.18 1010.28 1010.38 1010.51 1010.68 1010.89 1011.13 1011.39 1011.63 1011.85 1012.03 1012.16 1012.22 1012.23 1012.21 1012.15 1012.09 1012.04 1012.00 1011.99 1012.00 1012.02 1012.04 1012.06 1012.05 1012.02 1011.97 1011.90 1011.82 1011.76 1011.72 1011.72 1011.76 1011.85 1011.97 1012.11 1012.25 1012.37 1012.44 1012.46 1012.41 1012.31
1010.58 1010.67 1010.74 1010.82 1010.92 1011.07 1011.26 1011.49 1011.72 1011.95 1012.15 1012.29 1012.37 1012.39 1012.35 1012.28 1012.19 1012.10 1012.03 1012.00 1012.00 1012.04 1012.10 1012.17 1012.23 1012.27 1012.27 1012.24 1012.17 1012.09 1012.01 1011.94 1011.91 1011.92 1011.97 1012.06 1012.18 1012.30 1012.40 1012.48 1012.49 1012.46 1012.36
1010.94 1011.03 1011.10 1011.17 1011.27 1011.41 1011.59 1011.80 1012.02 1012.21 1012.37 1012.48 1012.51 1012.48 1012.40 1012.28 1012.16 1012.05 1011.99 1011.97 1012.01 1012.10 1012.22 1012.35 1012.46 1012.55 1012.59 1012.58 1012.52 1012.42 1012.31 1012.20 1012.12 1012.07 1012.07 1012.10 1012.17 1012.26 1012.35 1012.41 1012.44 1012.42 1012.34
1011.19 1011.29 1011.38 1011.46 1011.57 1011.71 1011.88 1012.08 1012.26 1012.43 1012.54 1012.59 1012.57 1012.49 1012.36 1012.20 1012.06 1011.95 1011.89 1011.90 1011.98 1012.12 1012.30 1012.49 1012.67 1012.81 1012.89 1012.90 1012.85 1012.74 1012.60 1012.44 1012.30 1012.19 1012.12 1012.10 1012.12 1012.16 1012.23 1012.28 1012.32 1012.31 1012.27
1011.37 1011.50 1011.60 1011.71 1011.83 1011.98 1012.14 1012.32 1012.47 1012.59 1012.65 1012.64 1012.56 1012.42 1012.24 1012.04 1011.87 1011.75 1011.70 1011.73 1011.85 1012.04 1012.28 1012.53 1012.77 1012.96 1013.08 1013.12 1013.08 1012.96 1012.80 1012.61 1012.42 1012.25 1012.12 1012.05 1012.02 1012.04 1012.08 1012.13 1012.17 1012.19 1012.18
1011.55 1011.70 1011.82 1011.95 1012.09 1012.23 1012.39 1012.53 1012.64 1012.70 1012.70 1012.62 1012.48 1012.28 1012.04 1011.80 1011.60 1011.46 1011.41 1011.46 1011.60 1011.83 1012.11 1012.41 1012.69 1012.92 1013.08 1013.15 1013.13 1013.02 1012.85 1012.64 1012.43 1012.23 1012.08 1011.97 1011.92 1011.92 1011.95 1012.00 1012.05 1012.09 1012.10
Thickness
5820 5818 5813 5810 5805 5799 5794 5790 5786 5783 5779 5776 5773 5769 5767 5767 5765 5764 5761 5759 5757 5756 5754 5754 5752 5751 5751 5749 5748 5747 5745 5745 5745 5743 5741 5744 5747 5746 5745 5746 5746 5745 5744
5821 5818 5815 5812 5808 5802 5798 5793 5789 5786 5782 5779 5776 5773 5771 5770 5768 5766 5762 5760 5758 5757 5757 5754 5753 5752 5750 5749 5748 5745 5744 5745 5745 5741 5738 5736 5738 5741 5745 5744 5743 5743 5743
5824 5820 5816 5814 5811 5806 5802 5799 5794 5789 5785 5782 5779 5775 5771 5769 5767 5765 5763 5762 5760 5758 5756 5755 5754 5752 5751 5749 5747 5746 5743 5741 5743 5743 5739 5734 5732 5736 5740 5741 5741 5740 5740
5830 5826 5821 5817 5815 5812 5808 5802 5797 5792 5787 5783 5780 5776 5771 5769 5767 5766 5765 5763 5761 5759 5757 5755 5753 5752 5752 5750 5749 5748 5745 5742 5740 5740 5741 5740 5740 5734 5732 5735 5738 5738 5736
5834 5830 5827 5823 5820 5817 5812 5806 5799 5793 5789 5785 5781 5776 5774 5772 5771 5768 5764 5762 5762 5760 5758 5756 5755 5753 5753 5751 5749 5748 5746 5745 5743 5741 5740 5738 5738 5738 5732 5729 5732 5734 5735
5837 5833 5831 5826 5822 5819 5814 5808 5800 5794 5790 5785 5782 5777 5774 5771 5768 5765 5763 5762 5762 5761 5759 5757 5755 5754 5753 5751 5750 5748 5746 5745 5743 5743 5742 5740 5738 5737 5735 5730 5729 5730 5732
5837 5833 5829 5824 5820 5817 5813 5809 5801 5794 5790 5786 5782 5779 5775 5771 5768 5766 5764 5763 5762 5761 5759 5758 5755 5754 5753 5752 5750 5748 5746 5745 5743 5742 5742 5742 5742 5741 5738 5734 5731 5729 5730
5837 5833 5830 5825 5821 5817 5813 5808 5802 5795 5791 5787 5782 5779 5776 5774 5772 5768 5766 5764 5763 5761 5759 5756 5754 5753 5753 5752 5750 5749 5747 5745 5743 5742 5741 5741 5741 5740 5738 5736 5731 5727 5727
5834 5832 5829 5825 5821 5817 5813 5809 5802 5796 5792 5788 5783 5779 5776 5773 5771 5768 5765 5764 5761 5760 5757 5755 5753 5752 5751 5751 5750 5748 5746 5744 5743 5743 5741 5740 5740 5739 5738 5737 5734 5728 5724
5830 5828 5826 5823 5821 5817 5812 5808 5802 5797 5793 5788 5784 5780 5776 5773 5770 5767 5764 5762 5760 5758 5755 5753 5752 5750 5749 5749 5748 5747 5745 5743 5742 5741 5739 5738 5739 5738 5736 5735 5734 5731 5727
5825 5823 5821 5819 5817 5814 5810 5805 5800 5794 5790 5787 5782 5778 5774 5772 5768 5765 5762 5760 5758 5756 5754 5752 5751 5749 5748 5747 5745 5745 5744 5742 5741 5740 5738 5735 5735 5735 5734 5732 5731 5729 5725
5819 5818 5816 5813 5811 5808 5806 5802 5797 5792 5789 5785 5781 5776 5772 5770 5766 5763 5761 5759 5756 5755 5753 5751 5749 5748 5747 5745 5743 5741 5741 5740 5739 5737 5736 5734 5733 5731 5730 5728 5726 5724 5722
5811 5811 5809 5807 5804 5802 5800 5798 5793 5789 5787 5783 5778 5774 5770 5767 5763 5761 5758 5756 5754 5752 5751 5749 5747 5745 5744 5742 5741 5739 5738 5737 5736 5735 5733 5732 5730 5727 5726 5723 5722 5721 5720
5802 5802 5800 5798 5797 5795 5793 5792 5790 5787 5783 5779 5775 5770 5767 5764 5761 5758 5755 5753 5751 5749 5747 5745 5744 5742 5741 5740 5738 5736 5735 5734 5733 5732 5731 5730 5727 5724 5722 5720 5717 5716 5714
5793 5793 5792 5790 5789 5787 5786 5786 5784 5781 5778 5774 5770 5767 5764 5761 5758 5754 5752 5749 5747 5745 5743 5741 5740 5739 5738 5737 5734 5732 5731 5729 5728 5727 5726 5725 5723 5720 5718 5718 5715 5712 5711
5785 5785 5784 5783 5781 5780 5779 5778 5777 5775 5772 5768 5765 5763 5760 5757 5753 5750 5748 5745 5742 5739 5738 5736 5735 5734 5734 5730 5727 5726 5726 5724 5722 5720 5720 5719 5717 5714 5711 5709 5707 5706 5704
5778 5776 5775 5775 5774 5775 5774 5771 5770 5768 5765 5762 5759 5757 5754 5751 5749 5747 5743 5740 5737 5735 5732 5731 5730 5729 5727 5723 5721 5719 5719 5719 5717 5715 5713 5714 5714 5710 5708 5704 5700 5699 5696
5769 5770 5770 5769 5769 5769 5768 5766 5763 5760 5758 5755 5753 5752 5749 5745 5743 5740 5737 5735 5732 5729 5727 5726 5725 5723 5721 5718 5715 5713 5713 5713 5712 5710 5708 5707 5706 5706 5702 5700 5697 5695 5694
5762 5763 5764 5764 5762 5760 5759 5757 5754 5752 5750 5748 5746 5745 5742 5739 5736 5733 5731 5729 5727 5725 5723 5721 5720 5718 5716 5712 5710 5707 5708 5707 5706 5705 5703 5701 5699 5696 5693 5692 5690 5688 5687
5753 5754 5755 5753 5751 5750 5750 5747 5745 5743 5741 5740 5739 5738 5735 5731 5728 5727 5725 5724 5722 5720 5719 5717 5715 5713 5711 5707 5703 5700 5703 5702 5700 5698 5696 5692 5691 5687 5684 5684 5683 5681 5681
5743 5744 5743 5741 5740 5741 5740 5738 5736 5734 5734 5732 5730 5729 5726 5724 5722 5720 5718 5716 5715 5714 5713 5710 5709 5707 5704 5701 5697 5694 5695 5696 5694 5692 5691 5689 5682 5679 5676 5675 5676 5674 5672
5733 5733 5731 5730 5730 5731 5730 5728 5726 5726 5724 5721 5720 5719 5717 5716 5715 5712 5711 5709 5708 5706 5704 5703 5701 5700 5698 5695 5690 5686 5685 5685 5685 5684 5684 5680 5673 5670 5667 5666 5665 5663 5661
5721 5722 5721 5720 5720 5720 5719 5716 5715 5715 5713 5710 5708 5707 5706 5706 5705 5704 5702 5701 5700 5700 5699 5697 5695 5693 5691 5688 5682 5678 5676 5674 5674 5675 5671 5667 5663 5660 5659 5656 5655 5654 5656
5709 5710 5710 5708 5709 5709 5708 5707 5705 5704 5703 5700 5699 5698 5697 5697 5696 5695 5695 5694 5694 5692 5691 5689 5686 5685 5682 5680 5676 5673 5669 5664 5663 5662 5658 5655 5653 5652 5651 5649 5649 5649 5650
5698 5698 5698 5697 5697 5697 5697 5696 5694 5693 5692 5691 5690 5690 5690 5689 5686 5685 5684 5684 5682 5681 5679 5679 5678 5676 5674 5670 5664 5662 5661 5658 5655 5650 5649 5649 5648 5647 5646 5645 5643 5643 5642
5686 5687 5687 5687 5687 5686 5685 5684 5683 5682 5681 5681 5682 5682 5681 5680 5679 5677 5675 5672 5670 5668 5665 5664 5663 5664 5660 5655 5652 5649 5647 5644 5641 5639 5641 5641 5640 5639 5638 5636 5634 5633 5632